Regional Weather Roundup
Issued by NWS

Home | Current Version | Previous Version | Text Only | Print | Product List | Glossary On
Versions: 1 2 3 4 5 6 7 8 9 10 11 12 13 14 15 16 17 18 19 20 21 22 23 24 25 26 27 28 29 30 31 32 33 34 35 36 37 38 39 40 41 42 43 44 45 46 47 48 49 50
000
ASHW40 PHFO 012210
RWRHI

WEATHER ROUNDUP FOR HAWAII
NATIONAL WEATHER SERVICE HONOLULU HI
1200 PM HST MON SEP 01 2014

THIS IS AN AUTOMATED REPORT THAT HAS NOT BEEN QUALITY CONTROLLED.

NOTE..."FAIR" INDICATES FEW OR NO CLOUDS BELOW 12,000 FEET WITH NO
SIGNIFICANT WEATHER AND/OR OBSTRUCTIONS TO VISIBILITY.

* - THESE SITES REPORT LIMITED FIELDS

HIZ001>004-012300-
KAUAI-NIIHAU-

CITY           SKY/WX    TMP DP  RH WIND       PRES   REMARKS
LIHUE APT      SUNNY     84  71  65 E7        30.04F
PORT ALLEN*    NOT AVBL
POIPU*         NOT AVBL
PRINCEVILLE*   NOT AVBL
KOKOLE POINT*  NOT AVBL
MOLOAA DAIRY*  NOT AVBL
WAIMEA HTS*    NOT AVBL
PUU OPAE*      NOT AVBL
PUU LUA*       NOT AVBL
MAKAHA RIDGE*  NOT AVBL
$$

HIZ005>011-012300-
OAHU-

CITY           SKY/WX    TMP DP  RH WIND       PRES   REMARKS
HONOLULU       MOSUNNY   86  72  62 S12       30.02F HX  92
KALAELOA       SUNNY     85  73  67 S9        30.03F HX  91
KANEOHE MCB    SUNNY     84  73  69 E6        30.02F HX  90
WHEELER FIELD  CLOUDY    83  68  60 VRB2      30.04F
BELLOWS*       NOT AVBL
KAHUKU*        NOT AVBL
WHEELER*       NOT AVBL
WAIANAE HARBOR NOT AVBL
DILLINGHAM*      N/A     95  72  46 NW3G9       N/A  HX 103
KAHUKU TRN*      N/A     82  73  74 E9G16       N/A
KAWAILOA*      NOT AVBL
KII*             N/A     82  73  74 E12         N/A
MAKUA RANGE*     N/A     84  72  65 W3G9        N/A
OAHU FOREST NW NOT AVBL
SCHOFIELD BRK*   N/A     81  68  65 MISG        N/A
SCHOFIELD S*   NOT AVBL
WAIANAE VLY*   NOT AVBL
KUAOKALA*      NOT AVBL
HONOULIUULI*   NOT AVBL
MOKUOLOE IS*     N/A    N/A N/A N/A MISG        N/A
PALEHUA*       NOT AVBL
WAIAWA PHB*    NOT AVBL
$$

HIZ012>013-012300-
MOLOKAI-

CITY           SKY/WX    TMP DP  RH WIND       PRES   REMARKS
MOLOKAI AIRPT  NOT AVBL
KALAUPAPA      NOT AVBL
MAKAPULAPAI*   NOT AVBL
MOLOKAI 1*     NOT AVBL
PUU ALII*      NOT AVBL
$$

HIZ016-012300-
KAHOOLAWE-

CITY           SKY/WX    TMP DP  RH WIND       PRES   REMARKS
KAHOOLAWE*     NOT AVBL
HAKIOAWA*      NOT AVBL
HONOKANAIA*      N/A     85  73  67 W7G21     30.04F HX  92
KANELOA*         N/A     81  70  69 NE14G23   29.27S
KEALIALALO*    NOT AVBL
LUA MAKIKA*    NOT AVBL
$$

HIZ014>015-012300-
LANAI-

CITY           SKY/WX    TMP DP  RH WIND       PRES   REMARKS
LANAI CITY     FAIR      86  70  58 W8        30.09F HX  90
LANAI 1*       NOT AVBL
$$

HIZ017>028-012300-
MAUI-

CITY           SKY/WX    TMP DP  RH WIND       PRES   REMARKS
KAHULUI        MOSUNNY   92  69  47 NE14G20   30.02F HX  97
KAPALUA-W MAUI MOSUNNY   86  72  62 SW7       30.03  HX  92
HANA AIRPORT   MOSUNNY   84  72  65 E9        30.06S
HANA*          NOT AVBL
HALEAKALA SUMM   N/A     61  50  67 NW3G23      N/A
MAALAEA BAY*   NOT AVBL
HALEAKALA*     NOT AVBL
KAUPO GAP*     NOT AVBL
KULA 1*          N/A     62  58  87 NW6G12      N/A
$$

HIZ023>026-012300-
BIG ISLAND OF HAWAII COAST AND LOWER SLOPES-

CITY           SKY/WX    TMP DP  RH WIND       PRES   REMARKS
KAILUA KONA    SUNNY     87  72  60 SW10      29.99F HX  93
HILO           NOT AVBL
HONOKAA*       NOT AVBL
KAWAIHAE MWT*  NOT AVBL
KAWAIHAE*        N/A     81 N/A N/A W6          N/A
SOUTH POINT*   NOT AVBL
UPOLU AIRPORT* NOT AVBL
KAMUELA*       MOCLDY    81  64  57 S9        30.14S
HAKALAU*         N/A     65  59  80 E2          N/A
KALOKO-HONOKO* NOT AVBL
PALI 2*          N/A     70  70 100 SE7G14      N/A
KEALAKOMO*     NOT AVBL
KAUPULEHU*     NOT AVBL
KAPAPALA*        N/A     79  69  72 E6G15       N/A
LOWER KAHUKU*  NOT AVBL
PUHE CS*       NOT AVBL
PUHO CS*       NOT AVBL
PTA KEAMUKU*     N/A     79  64  61 W9G16       N/A
WAIKOLOA*      NOT AVBL
$$

HIZ027>028-012300-
BIG ISLAND OF HAWAII INTERIOR AND SUMMMITS-

CITY           SKY/WX    TMP DP  RH WIND       PRES   REMARKS
BRADSHAW FIELD MOSUNNY   72  58  60 SW10G20   30.38F
MK VISITOR CEN NOT AVBL
MAUNA KEA*       N/A     52  10  19 N2          N/A
MAUNA LOA*       N/A     54  43  66 MISG        N/A
MAUNA LOA 1*   NOT AVBL
PTA KIPUKA*      N/A     75  59  57 NW7G15      N/A
PTA RANGE 17*    N/A     72  61  68 NW12G18     N/A
PTA WEST*        N/A     73  63  68 N8G16       N/A
NENE CABIN*    NOT AVBL
AHUMOA*        NOT AVBL
PTA PORTABLE*  NOT AVBL
PUU MALI*      NOT AVBL
$$

HIC003-012300-
NORTHWEST ISLANDS-

CITY           SKY/WX    TMP DP  RH WIND       PRES   REMARKS
MIDWAY ISLAND  SUNNY     88  72  58 S7        30.04S HX  94
MIDWAY NOS*    NOT AVBL
FRENCH FRIGATE NOT AVBL
$$

PHZ110>124-180-012300-
BUOY REPORTS

STATION/POSITION TIME  TEMP    WIND        PRES    WAVE   SWELL
                       AIR SEA DIR/SP/G            HT/PER HT/DIR
                 (UTC) (F)     (DEG/KT/KT) (MB)    (FT/S) (FT/D)
BUOY 51001       NOT AVBL
BUOY 51101       NOT AVBL
BUOY 51100       2200   79 80  120/ 12/ 14 1017.9F
BUOY 51003       2100   81 82   70/ 14/ 16 1016.4F   6/13   5
BUOY 51004       2120   80 81   90/ 10/ 12 1015.6F   6/14   7/170
BARBERS PT BUOY  NOT AVBL
WAIMEA BAY BUOY  2200      82                N/A     2/11   2/ 40
KAILUA BAY BUOY  2200      83                N/A     4/11   2/ 70
LANAI BUOY       NOT AVBL
BARBERS PT 2     2200      83                N/A     4/13   3/180
PAUWELA MAUI     2200      80                N/A     5/11   2/ 70
HILO             NOT AVBL
KANEOHE BAY BUOY 2200      82                N/A     3/11   2/ 70
HANALEI KAUAI    NOT AVBL
KAHULUI HARBOR   2200   82 83   60/  7/ 14 1016.5S
HONOLULU HARBOR  2200   82     210/  7/ 10 1017.0F
KILO NALU        NOT AVBL
HILO HARBOR      2200   90     100/  8/ 14 1016.1F
MOKUOLOE         2200      84              1017.0
NAWILIWILI       2200      82                N/A
WHOTS BUOY       NOT AVBL
BUOY 51028       NOT AVBL
$$

......................KEY........................................
  SKY/WX - SKY CONDITIONS/PRESENT WEATHER
  TMP    - TEMPERATURE IN FAHRENHEIT
  DWPT   - DEWPOINT IN FAHRENHEIT
  RH     - RELATIVE HUMIDITY IN PERCENT
  WIND   - DIRECTION AND SPEED /MPH FOR ISLANDS...KTS FOR BUOYS/
  PRES   - MEAN SEA LEVEL PRESSURE IN INCHES OF HG
  VSB    - VISIBILITY IN MILES
  HX     - HEAT INDEX
  WCI    - WIND CHILL INDEX
  VRB    - VARIABLE WIND DIRECTION
  N/A    - NOT AVAILABLE


USA.gov is the U.S. government's official web portal to all federal, state and local government web resources and services.